Total_Precipitation_Accumulation
0.00 0.00 0.00 0.00 0.00 0.00 0.00 0.00 0.00 0.00 0.00 0.00 0.00 0.00 0.01 0.03 0.05 0.08 0.19 0.40 0.62 0.67 0.79 0.78 0.56 0.47 0.48 0.61 0.70 0.80 0.95 1.00 1.11 1.07 0.94 0.93 0.89 0.92 0.92 0.91 0.89 0.92 0.94 1.04
0.00 0.00 0.00 0.00 0.00 0.00 0.00 0.00 0.00 0.00 0.00 0.00 0.00 0.00 0.01 0.02 0.04 0.05 0.08 0.17 0.31 0.45 0.53 0.56 0.52 0.52 0.71 0.93 0.99 1.02 1.01 1.02 1.14 1.30 1.36 1.39 1.45 1.27 1.13 1.09 1.01 0.98 1.06 1.13
0.00 0.00 0.00 0.00 0.00 0.00 0.00 0.00 0.00 0.00 0.00 0.00 0.00 0.00 0.01 0.02 0.05 0.14 0.21 0.28 0.36 0.49 0.60 0.65 0.64 0.64 0.74 0.86 0.96 1.03 1.07 1.10 1.20 1.37 1.51 1.54 1.56 1.39 1.28 1.18 1.11 1.02 1.05 1.04
0.00 0.00 0.00 0.00 0.00 0.00 0.00 0.00 0.00 0.00 0.00 0.00 0.00 0.00 0.01 0.02 0.13 0.30 0.40 0.48 0.55 0.67 0.68 0.72 0.74 0.73 0.77 0.82 0.92 1.03 1.09 1.13 1.21 1.32 1.41 1.40 1.39 1.27 1.26 1.27 1.16 1.07 1.01 0.98
0.00 0.00 0.00 0.00 0.00 0.00 0.00 0.00 0.00 0.00 0.00 0.00 0.00 0.00 0.01 0.01 0.11 0.31 0.44 0.45 0.59 0.63 0.59 0.63 0.70 0.71 0.68 0.73 0.84 0.93 0.99 1.01 1.04 1.05 1.10 1.13 1.12 1.12 1.13 1.07 0.98 0.91 0.86 0.87
0.00 0.00 0.00 0.00 0.00 0.00 0.00 0.00 0.00 0.00 0.01 0.02 0.03 0.04 0.04 0.05 0.09 0.19 0.32 0.42 0.56 0.64 0.65 0.66 0.67 0.66 0.66 0.73 0.81 0.87 0.89 0.89 0.86 0.83 0.86 0.90 0.92 0.94 0.94 0.91 0.90 0.85 0.81 0.74
0.01 0.01 0.02 0.01 0.01 0.01 0.00 0.01 0.07 0.07 0.10 0.11 0.11 0.07 0.08 0.09 0.06 0.10 0.27 0.48 0.63 0.64 0.61 0.60 0.60 0.62 0.65 0.66 0.66 0.67 0.67 0.68 0.63 0.59 0.60 0.63 0.65 0.67 0.71 0.73 0.71 0.66 0.58 0.55
0.02 0.04 0.05 0.03 0.02 0.02 0.02 0.05 0.21 0.19 0.07 0.06 0.06 0.06 0.17 0.23 0.19 0.27 0.41 0.51 0.54 0.50 0.49 0.49 0.49 0.50 0.51 0.49 0.48 0.51 0.53 0.58 0.59 0.55 0.53 0.46 0.42 0.41 0.42 0.51 0.53 0.49 0.46 0.44
0.02 0.02 0.02 0.01 0.02 0.02 0.05 0.09 0.11 0.24 0.18 0.12 0.04 0.08 0.22 0.37 0.43 0.58 0.70 0.69 0.62 0.50 0.43 0.40 0.38 0.37 0.36 0.35 0.38 0.45 0.49 0.52 0.57 0.55 0.50 0.45 0.39 0.36 0.36 0.40 0.46 0.46 0.49 0.44
0.02 0.00 0.01 0.00 0.01 0.02 0.04 0.06 0.08 0.20 0.22 0.20 0.07 0.12 0.31 0.64 0.74 0.70 0.75 0.67 0.51 0.40 0.32 0.28 0.25 0.24 0.24 0.25 0.30 0.37 0.41 0.41 0.42 0.43 0.42 0.36 0.34 0.34 0.35 0.37 0.38 0.40 0.41 0.43
0.00 0.00 0.00 0.01 0.01 0.03 0.07 0.10 0.16 0.25 0.23 0.26 0.24 0.24 0.32 0.48 0.62 0.66 0.63 0.52 0.37 0.27 0.20 0.19 0.19 0.20 0.21 0.21 0.25 0.32 0.39 0.42 0.43 0.42 0.41 0.35 0.30 0.29 0.29 0.30 0.31 0.36 0.38 0.40
0.00 0.00 0.00 0.01 0.01 0.02 0.04 0.08 0.17 0.28 0.25 0.25 0.28 0.26 0.18 0.21 0.29 0.35 0.36 0.31 0.26 0.21 0.18 0.21 0.23 0.23 0.21 0.22 0.27 0.34 0.39 0.44 0.48 0.49 0.50 0.46 0.40 0.36 0.33 0.31 0.29 0.29 0.31 0.35
0.00 0.00 0.01 0.02 0.04 0.05 0.04 0.04 0.07 0.11 0.13 0.13 0.20 0.21 0.17 0.21 0.29 0.39 0.48 0.49 0.41 0.32 0.22 0.19 0.21 0.23 0.24 0.28 0.33 0.43 0.48 0.50 0.52 0.58 0.65 0.64 0.51 0.45 0.44 0.38 0.32 0.30 0.28 0.28
0.00 0.00 0.01 0.01 0.01 0.02 0.01 0.02 0.03 0.09 0.17 0.15 0.13 0.16 0.19 0.23 0.31 0.39 0.44 0.39 0.31 0.25 0.20 0.17 0.20 0.23 0.26 0.29 0.29 0.32 0.36 0.38 0.44 0.46 0.55 0.65 0.61 0.49 0.36 0.29 0.29 0.30 0.29 0.29
0.00 0.00 0.00 0.00 0.00 0.00 0.00 0.00 0.00 0.03 0.11 0.23 0.18 0.15 0.18 0.19 0.19 0.24 0.24 0.21 0.17 0.16 0.14 0.15 0.18 0.21 0.25 0.25 0.22 0.19 0.17 0.17 0.23 0.27 0.34 0.44 0.38 0.32 0.28 0.25 0.19 0.16 0.20 0.25
0.00 0.00 0.00 0.00 0.01 0.00 0.00 0.01 0.01 0.02 0.03 0.08 0.12 0.17 0.18 0.18 0.19 0.20 0.19 0.17 0.16 0.16 0.13 0.12 0.14 0.17 0.19 0.16 0.11 0.08 0.08 0.11 0.17 0.23 0.28 0.35 0.34 0.27 0.20 0.16 0.10 0.09 0.14 0.19
0.00 0.00 0.00 0.00 0.01 0.02 0.05 0.03 0.01 0.01 0.02 0.04 0.13 0.21 0.19 0.20 0.19 0.18 0.16 0.14 0.12 0.10 0.08 0.07 0.06 0.06 0.05 0.05 0.04 0.05 0.05 0.06 0.14 0.23 0.30 0.35 0.39 0.38 0.27 0.14 0.10 0.11 0.15 0.20
0.01 0.01 0.00 0.00 0.01 0.09 0.08 0.01 0.01 0.02 0.02 0.03 0.06 0.09 0.10 0.09 0.07 0.06 0.06 0.05 0.03 0.03 0.03 0.03 0.02 0.02 0.02 0.02 0.04 0.07 0.06 0.07 0.12 0.21 0.28 0.30 0.34 0.34 0.29 0.22 0.19 0.20 0.23 0.29
0.00 0.01 0.01 0.01 0.02 0.06 0.02 0.02 0.02 0.04 0.04 0.03 0.03 0.04 0.04 0.04 0.04 0.06 0.03 0.02 0.01 0.01 0.01 0.01 0.01 0.01 0.02 0.02 0.05 0.10 0.11 0.14 0.18 0.26 0.34 0.34 0.34 0.32 0.26 0.22 0.24 0.25 0.28 0.31
0.00 0.00 0.01 0.01 0.02 0.05 0.04 0.04 0.06 0.04 0.11 0.08 0.05 0.04 0.03 0.02 0.08 0.10 0.04 0.01 0.01 0.01 0.01 0.02 0.02 0.02 0.04 0.06 0.09 0.14 0.20 0.24 0.30 0.38 0.43 0.40 0.41 0.41 0.36 0.35 0.35 0.32 0.33 0.31
0.00 0.00 0.01 0.01 0.03 0.04 0.02 0.04 0.04 0.08 0.15 0.04 0.02 0.01 0.01 0.02 0.05 0.05 0.02 0.01 0.01 0.01 0.02 0.03 0.04 0.04 0.06 0.08 0.12 0.20 0.25 0.27 0.30 0.32 0.39 0.44 0.48 0.52 0.55 0.57 0.51 0.44 0.40 0.38
0.00 0.01 0.02 0.03 0.07 0.09 0.02 0.01 0.01 0.04 0.02 0.01 0.01 0.01 0.02 0.02 0.01 0.01 0.01 0.01 0.01 0.02 0.03 0.04 0.06 0.05 0.07 0.09 0.14 0.20 0.23 0.25 0.28 0.31 0.39 0.46 0.49 0.48 0.55 0.73 0.72 0.69 0.63 0.52
0.00 0.01 0.02 0.02 0.04 0.02 0.00 0.00 0.01 0.01 0.01 0.02 0.02 0.01 0.02 0.02 0.02 0.02 0.02 0.02 0.02 0.02 0.03 0.05 0.09 0.10 0.12 0.15 0.24 0.32 0.29 0.29 0.33 0.38 0.44 0.48 0.48 0.52 0.61 0.69 0.73 0.75 0.70 0.61
0.00 0.01 0.01 0.03 0.01 0.00 0.01 0.01 0.01 0.01 0.01 0.01 0.01 0.01 0.02 0.03 0.03 0.03 0.03 0.03 0.04 0.04 0.06 0.09 0.13 0.19 0.26 0.30 0.35 0.42 0.37 0.37 0.40 0.41 0.45 0.49 0.52 0.53 0.57 0.68 0.71 0.69 0.64 0.63
0.00 0.00 0.01 0.03 0.02 0.01 0.01 0.02 0.01 0.00 0.01 0.01 0.01 0.02 0.02 0.03 0.04 0.04 0.04 0.05 0.05 0.05 0.07 0.12 0.19 0.27 0.34 0.41 0.47 0.49 0.49 0.51 0.52 0.48 0.47 0.50 0.52 0.54 0.60 0.67 0.74 0.73 0.67 0.61
0.01 0.02 0.03 0.04 0.04 0.05 0.05 0.03 0.01 0.01 0.01 0.01 0.02 0.02 0.03 0.04 0.05 0.04 0.05 0.05 0.05 0.06 0.07 0.11 0.18 0.26 0.34 0.42 0.49 0.51 0.58 0.66 0.70 0.69 0.61 0.60 0.62 0.64 0.69 0.71 0.64 0.56 0.54 0.45